GFSFLT2_prec_cloud_060.txt.gz
Cloud_Cover
99 3 24 58 100 100 100 100 100 100 100 100 100 100 100 82 100 99 100 92 73 6 12 6 52 18 5 5 6 11 67 96
98 100 100 100 100 100 100 100 100 100 100 100 100 100 100 100 86 100 78 10 12 5 5 8 5 14 5 10 83 97 28 76
100 100 100 100 100 100 100 100 100 100 100 100 100 100 100 8 37 100 100 73 92 92 96 99 100 100 43 100 100 71 100 75
100 100 100 100 100 100 100 100 100 100 100 100 100 100 93 100 62 54 62 94 82 73 63 100 100 100 15 99 83 57 89 17
100 100 100 100 100 100 100 100 100 100 100 100 100 100 100 100 96 75 100 96 100 100 90 73 100 100 100 81 99 99 95 78
100 100 100 100 100 100 100 100 100 100 100 100 100 100 100 100 100 63 69 68 100 91 56 84 99 97 100 100 100 100 82 100
100 100 100 100 100 100 100 100 100 100 100 100 100 100 100 100 100 99 84 95 99 99 63 80 94 100 100 100 100 100 100 100
100 100 100 100 100 100 100 100 100 100 100 100 100 100 100 100 96 100 99 88 87 96 88 73 91 97 100 100 100 100 100 100
100 100 100 100 100 100 100 100 100 100 100 100 100 100 99 100 100 100 100 100 100 100 100 100 100 100 100 100 100 100 100 100
100 100 100 100 100 100 100 100 100 100 100 100 100 100 100 100 100 100 100 100 100 100 100 100 100 100 100 100 100 100 100 100
100 100 100 100 100 100 100 100 100 100 100 100 100 100 100 100 100 100 100 100 100 100 100 100 100 100 87 100 100 100 100 100
100 100 100 100 100 100 100 100 100 100 100 100 100 100 100 100 100 100 100 100 100 100 100 100 100 100 100 100 100 100 100 100
100 100 100 100 100 100 100 100 90 100 100 100 100 100 100 100 100 100 100 100 100 100 100 100 100 100 100 100 100 100 100 100
100 100 100 100 100 100 100 100 100 100 100 100 100 100 100 100 100 100 100 100 100 100 100 100 100 100 100 100 100 100 100 100
100 100 100 100 100 100 100 100 100 100 100 100 100 100 100 100 100 100 100 100 100 100 100 100 100 100 100 100 100 100 100 100
100 98 100 100 100 100 100 100 100 100 100 100 100 100 100 100 100 100 100 100 100 100 100 100 100 100 100 100 100 100 88 100
100 99 98 100 100 98 100 100 100 100 100 100 100 100 100 100 100 100 100 100 100 100 100 100 100 100 100 100 100 92 100 100
100 98 98 99 68 55 98 99 100 100 100 100 100 100 100 100 100 100 100 100 100 100 100 95 99 100 82 76 91 100 99 100
99 69 89 87 46 94 95 96 100 100 100 100 100 100 100 100 100 100 100 100 100 99 100 100 100 100 100 99 83 100 100 100
100 99 56 2 6 32 72 100 100 100 100 100 100 100 100 100 100 100 100 89 56 81 100 100 88 77 98 65 100 98 100 100

GFSFLT2_prec_cloud_063.txt.gz
Cloud_Cover
100 14 33 100 100 26 70 95 100 100 100 100 100 100 100 100 100 100 100 100 100 100 99 58 18 4 4 5 5 5 9 55
36 100 98 94 64 100 98 100 100 100 100 100 100 100 100 100 100 100 100 100 100 98 71 44 79 10 7 71 7 38 87 51
98 100 100 100 100 100 100 100 100 100 100 100 100 100 100 100 100 100 85 35 42 100 83 99 91 100 100 95 91 18 99 94
100 100 97 100 100 100 100 100 100 100 100 100 100 100 100 100 100 62 60 52 9 50 72 97 100 100 82 100 100 100 100 100
100 100 100 100 100 100 100 100 100 100 100 100 100 100 100 100 95 93 77 71 98 92 56 60 100 98 100 98 100 100 100 83
100 100 100 100 100 100 100 100 100 100 100 100 100 100 100 100 94 76 90 30 83 34 91 90 100 85 90 75 100 99 100 95
100 100 100 100 100 100 100 100 100 100 100 100 100 100 100 100 100 100 60 99 100 78 82 84 87 99 89 100 99 100 100 100
100 100 100 100 100 100 100 100 100 100 100 100 100 100 100 100 100 99 76 90 62 100 95 67 91 96 96 100 99 100 100 100
100 100 100 100 100 100 100 100 100 100 100 100 100 100 100 100 100 97 92 100 100 93 90 100 100 100 100 100 100 100 100 100
100 100 100 100 100 100 100 100 100 100 100 100 100 100 100 100 100 89 100 99 100 100 100 100 100 100 100 100 100 100 100 100
100 100 100 100 100 100 100 100 100 100 100 100 100 100 100 100 100 100 100 100 100 100 100 100 100 100 100 100 100 100 100 100
100 100 100 100 100 100 100 100 100 100 100 100 100 100 100 100 100 100 100 95 100 100 100 100 100 100 100 100 100 100 100 100
100 100 100 100 100 100 100 100 100 100 100 100 100 100 100 100 100 100 100 100 100 100 100 100 100 100 100 100 100 100 100 100
100 100 100 100 100 100 100 100 86 100 100 100 100 100 100 100 100 100 100 100 100 100 100 100 100 100 100 100 100 100 100 100
100 100 100 100 100 100 100 100 100 100 100 100 100 100 100 100 100 100 100 100 100 100 100 100 100 100 100 100 100 100 100 97
100 100 100 100 98 88 100 100 100 100 100 100 100 100 100 100 100 100 100 100 100 100 100 100 100 100 100 100 82 83 100 100
55 100 100 100 100 100 100 100 100 100 100 100 100 100 100 100 100 100 100 100 100 100 100 100 100 100 100 100 100 100 100 98
56 98 100 100 100 100 100 100 100 100 100 100 100 100 100 100 100 100 100 100 100 100 100 91 100 94 100 100 100 98 99 100
83 22 58 100 100 100 100 100 100 100 100 100 100 100 100 100 100 100 100 100 100 100 100 100 100 100 100 100 100 100 100 92
54 46 90 100 87 23 47 84 98 100 100 100 100 100 100 100 100 100 100 100 100 100 100 100 100 100 100 100 100 100 100 99

GFSFLT2_prec_cloud_066.txt.gz
Cloud_Cover
100 100 100 100 100 100 100 93 60 100 73 44 80 100 100 86 100 100 100 100 100 100 100 100 80 74 5 39 27 5 16 6
100 100 100 99 100 71 100 100 100 100 100 100 93 100 100 100 100 100 100 100 100 100 100 100 100 99 14 6 17 66 52 85
100 100 100 75 59 96 100 100 100 100 100 100 100 100 100 100 100 100 100 100 100 76 32 100 100 82 84 96 100 100 100 98
100 100 96 53 97 76 100 100 100 100 100 100 100 100 100 100 100 100 100 100 100 53 83 64 100 99 99 100 100 83 64 94
100 100 100 75 100 100 100 100 100 100 100 100 100 100 100 100 100 100 100 100 84 9 5 23 71 94 100 100 100 77 99 100
100 100 100 100 100 100 100 100 100 100 100 100 100 100 100 100 100 100 86 74 65 5 7 45 100 100 100 99 99 91 100 100
100 100 100 100 100 100 100 100 100 100 100 100 100 100 100 100 100 100 100 22 88 40 77 83 100 100 100 100 49 97 100 90
100 100 100 100 100 100 100 100 100 100 100 100 100 100 100 100 100 100 100 100 97 59 22 74 100 85 100 82 86 88 91 97
100 100 100 100 100 100 100 100 100 100 100 100 100 100 100 100 100 100 100 100 76 96 52 76 73 75 54 100 100 99 100 100
100 100 100 100 100 100 100 100 100 100 100 100 100 100 100 100 98 95 95 85 55 99 100 63 58 17 79 100 100 100 100 100
100 100 100 100 100 100 100 100 100 100 100 100 100 100 100 100 100 100 99 100 100 99 95 73 96 100 100 100 100 100 100 100
100 100 100 100 100 100 100 100 100 100 100 98 100 100 100 100 100 100 100 100 100 100 100 100 100 100 100 100 100 100 99 100
100 100 100 100 100 100 100 100 100 100 100 100 100 100 100 100 100 100 100 100 100 100 100 100 100 100 100 100 100 100 100 100
100 100 100 100 100 100 100 97 100 100 100 100 100 100 100 100 100 100 100 100 100 100 100 100 100 100 100 100 100 100 100 100
100 100 100 100 100 100 100 100 100 100 100 100 100 100 100 100 100 100 100 100 100 100 100 100 100 100 100 100 100 100 100 100
100 100 100 100 100 100 100 100 100 78 92 100 100 100 100 100 100 100 100 100 100 100 100 100 100 100 100 100 100 100 100 100
100 100 100 100 100 91 88 100 100 100 100 100 100 100 100 100 100 100 100 100 100 100 100 100 100 100 100 100 100 100 100 100
99 100 100 100 100 100 100 100 100 100 100 100 100 100 100 100 100 100 100 100 100 100 100 100 100 100 100 100 100 100 100 100
95 97 100 100 100 100 100 100 97 100 100 100 100 100 100 100 100 100 100 100 100 100 100 100 100 100 100 100 100 100 100 100
25 26 53 100 100 100 92 69 100 100 100 100 100 100 100 100 100 100 100 100 100 100 100 100 100 100 100 100 100 100 100 100

GFSFLT2_prec_cloud_072.txt.gz
Cloud_Cover
41 100 91 76 100 96 100 100 100 100 100 100 100 100 100 100 100 100 100 96 26 8 100 67 6 75 49 100 78 5 5 61
36 100 95 100 100 100 100 100 100 100 100 100 100 100 100 100 70 100 100 99 17 53 99 100 8 100 100 100 7 18 29 85
69 97 100 99 80 100 98 100 100 100 100 100 100 100 100 100 100 100 100 94 5 97 81 100 100 100 100 100 98 100 100 94
82 62 100 100 89 100 100 100 100 100 100 100 100 100 99 100 100 100 96 100 24 83 100 100 100 100 100 100 100 100 97 92
100 100 100 100 100 100 100 100 100 100 100 100 100 50 34 76 92 100 86 6 44 100 100 100 100 100 100 8 93 100 100 100
100 100 100 100 100 100 100 100 100 100 100 100 100 100 100 100 92 95 100 100 100 100 100 100 100 100 100 99 51 100 92 99
58 100 100 100 100 100 100 100 100 100 100 100 100 100 98 100 100 82 98 100 100 100 100 100 100 100 100 6 95 100 88 75
46 88 99 100 100 100 100 100 100 100 100 100 100 100 100 100 100 100 100 100 100 100 100 100 100 100 100 72 94 100 54 89
53 100 100 99 100 100 100 100 100 100 100 100 100 100 100 100 100 100 100 100 100 100 100 100 100 100 99 99 100 100 100 100
99 100 100 100 100 100 100 100 100 100 100 100 100 100 90 100 100 100 100 100 100 100 100 100 100 98 96 91 100 98 100 72
100 100 100 100 100 100 100 100 100 100 100 100 100 100 100 100 100 100 100 100 100 100 100 100 100 92 87 76 61 81 55 84
100 92 100 100 100 100 100 100 100 100 100 100 100 100 100 100 100 100 100 100 100 100 100 100 100 100 97 100 100 100 64 66
100 69 100 100 100 100 100 100 100 100 100 100 100 100 100 100 100 100 100 100 100 100 100 100 100 100 100 100 100 97 94 94
100 100 96 100 100 100 100 100 100 100 100 100 100 100 100 78 98 98 100 100 100 100 100 100 100 100 100 100 100 100 100 100
100 100 100 100 100 100 100 100 100 100 100 100 100 100 100 100 100 100 100 100 100 100 100 100 100 100 100 100 100 100 100 100
100 100 100 100 100 100 100 100 100 100 100 100 100 100 100 100 100 100 100 100 100 100 100 100 100 100 100 100 100 100 100 100
100 100 98 100 100 100 100 98 100 100 100 100 100 100 100 100 100 100 100 100 100 100 100 100 100 100 100 100 82 100 100 100
100 100 100 100 100 100 100 100 86 100 96 99 100 100 100 100 100 97 100 100 100 100 100 100 100 100 100 100 100 100 100 100
73 100 100 100 100 100 100 100 100 100 100 100 100 100 100 100 97 100 90 100 100 100 100 100 100 100 100 100 100 100 100 100
44 27 99 100 100 100 100 100 100 99 100 100 100 100 100 100 100 100 100 100 100 100 100 100 100 100 100 100 100 100 97 100

GFSFLT2_prec_cloud_075.txt.gz
Cloud_Cover
19 7 5 24 80 16 100 100 100 100 100 100 100 100 100 100 100 100 100 100 100 100 100 100 25 91 63 95 86 97 70 90
83 99 36 50 100 97 100 100 100 100 100 100 100 100 100 100 100 100 100 100 100 100 100 90 100 7 88 100 82 92 100 16
0 54 100 62 100 100 99 100 100 100 100 100 100 100 100 100 97 100 100 100 100 100 91 95 23 88 100 100 100 100 100 97
3 0 99 100 100 100 98 100 100 100 100 100 100 100 100 100 100 100 100 98 100 92 100 88 100 100 100 100 100 100 100 100
5 16 100 100 100 100 100 100 100 100 100 100 100 100 100 100 60 100 100 100 100 97 91 46 100 100 100 100 100 100 100 100
62 70 100 100 100 100 100 100 100 100 100 100 100 100 100 100 72 54 48 83 100 100 92 100 100 100 100 100 100 100 100 99
5 73 100 100 100 100 100 100 100 100 100 100 100 100 100 100 100 98 74 18 100 100 66 100 100 100 100 100 100 100 100 100
13 21 100 100 100 100 100 100 100 100 100 100 100 100 100 100 85 97 63 17 69 59 79 98 100 100 100 100 100 100 100 98
100 63 96 100 100 100 100 100 100 100 100 100 100 100 100 100 100 82 56 61 93 98 98 100 100 100 100 100 100 100 95 100
100 89 100 100 100 100 100 100 100 100 100 100 100 100 100 100 100 98 61 86 99 100 100 100 100 100 100 100 100 57 97 74
100 95 100 100 100 100 100 100 100 100 100 100 100 100 100 100 93 100 100 100 100 100 100 100 100 100 100 100 100 96 98 98
66 100 98 100 100 100 100 100 100 100 100 100 100 100 100 100 100 100 100 94 99 84 100 100 100 100 100 100 100 100 100 96
100 100 100 98 100 100 100 100 100 100 100 100 100 100 100 100 100 100 60 100 100 100 100 100 100 100 100 100 100 100 97 100
100 100 100 99 84 99 100 100 100 100 100 100 100 100 100 100 100 100 100 100 99 97 100 100 100 100 100 100 100 100 93 40
100 100 100 99 100 100 100 100 100 100 100 100 100 100 100 100 100 100 100 100 100 100 100 100 100 100 100 100 100 99 78 100
100 100 100 76 99 100 100 100 100 100 100 100 100 100 100 100 100 100 100 100 100 100 100 100 100 100 100 100 100 100 100 100
100 100 100 100 100 100 100 100 100 100 100 100 100 100 100 100 100 100 100 100 100 100 100 100 100 100 100 100 100 100 100 100
67 100 100 100 100 100 100 100 100 100 100 100 100 100 100 100 100 100 100 100 100 100 100 94 96 100 100 100 100 100 100 100
100 100 100 97 100 100 100 100 100 100 100 100 100 100 100 100 100 100 100 100 100 100 100 100 99 100 100 100 100 100 100 100
100 100 99 100 100 100 100 100 100 100 100 100 100 100 100 100 100 98 100 100 100 100 100 100 97 100 100 100 100 100 100 100

GFSFLT2_prec_cloud_078.txt.gz
Cloud_Cover
0 0 41 67 1 1 94 100 100 100 100 100 100 100 100 100 100 100 100 96 39 64 95 66 100 100 86 5 99 88 100 86
0 63 99 48 59 54 87 100 100 100 100 100 100 100 100 100 100 100 100 100 85 87 65 100 100 100 80 100 32 100 100 99
5 20 54 100 100 100 100 100 100 100 100 100 100 100 100 100 100 100 100 78 53 58 78 100 100 100 100 12 65 100 100 100
0 42 47 93 100 95 100 100 100 100 100 100 100 100 100 100 100 100 100 100 100 100 100 84 100 100 100 5 100 100 100 99
0 38 48 54 100 100 100 100 100 100 100 100 100 100 100 100 100 100 84 72 93 96 44 74 100 100 91 75 100 100 100 100
0 3 75 95 84 100 79 94 100 100 100 100 100 100 100 100 100 100 100 100 100 99 81 66 88 100 13 100 100 100 100 100
10 8 76 100 99 100 100 100 100 100 100 100 100 100 100 100 100 99 100 100 100 79 60 84 99 100 100 100 100 100 100 100
4 5 46 100 100 100 100 100 100 100 100 100 100 100 100 100 100 100 100 99 97 94 99 82 100 100 100 100 100 100 100 100
5 5 88 93 100 100 100 100 100 100 100 100 100 100 100 100 100 100 100 86 80 73 79 93 100 100 100 99 100 100 100 100
15 7 62 100 100 100 100 100 100 100 100 100 100 100 100 100 100 100 100 100 94 14 99 97 75 100 100 100 100 100 100 100
24 60 90 95 100 100 100 100 100 100 100 100 100 100 100 100 100 97 100 99 100 100 93 99 98 100 100 100 100 100 100 98
25 79 100 100 100 100 100 100 100 100 100 100 100 100 100 100 100 100 100 100 100 98 99 100 90 100 100 100 100 100 100 72
41 99 100 97 100 100 100 100 100 100 100 100 100 100 100 100 100 100 100 100 100 100 97 100 100 100 100 100 100 100 97 91
53 68 100 100 100 100 100 100 100 100 100 100 100 100 100 100 100 100 100 100 100 100 100 100 100 100 100 100 100 100 100 100
100 66 100 100 100 100 100 100 100 100 100 100 100 100 100 100 100 100 100 100 100 100 100 100 100 100 100 100 100 100 100 100
58 64 100 100 100 100 100 100 100 100 100 100 100 100 100 100 100 100 100 100 100 100 100 97 79 78 86 100 100 100 100 97
21 28 76 100 100 99 100 100 100 100 100 100 100 100 100 100 100 100 100 100 100 100 100 100 83 100 100 100 100 100 100 100
55 100 100 100 100 42 100 100 100 100 100 100 100 100 100 100 100 100 100 100 100 100 100 100 96 95 100 100 100 100 100 100
47 100 100 100 100 65 40 46 86 100 100 100 100 100 100 100 100 100 100 100 100 100 100 100 92 96 100 100 100 99 100 100
27 100 100 100 100 100 98 59 41 34 94 65 100 100 100 100 100 100 100 100 100 99 100 100 100 100 100 86 94 100 100 100

GFSFLT2_prec_cloud_084.txt.gz
Cloud_Cover
100 100 92 95 100 38 20 0 1 2 100 100 100 100 100 100 100 100 100 100 100 100 100 100 16 22 100 100 100 100 100 69
100 100 100 64 61 88 50 8 0 56 100 100 100 100 100 100 100 100 100 100 100 100 100 100 99 97 100 100 100 100 99 100
94 100 100 68 96 99 95 64 65 100 100 100 100 100 100 100 100 100 100 100 100 100 100 100 100 100 86 100 100 92 100 100
54 100 100 100 100 100 99 87 100 100 100 100 100 100 100 100 100 100 100 100 100 100 100 100 88 98 49 100 99 100 98 100
71 71 100 100 100 100 100 100 99 100 100 100 100 100 100 100 100 100 100 100 100 74 100 100 100 78 88 84 64 100 100 100
89 100 100 100 100 100 100 100 100 100 100 100 100 100 100 100 99 100 100 100 100 100 100 82 99 48 84 100 100 100 100 99
32 100 100 100 100 100 100 100 100 100 100 100 100 100 100 100 72 100 100 100 100 100 92 90 95 76 100 91 100 99 100 100
26 100 100 100 100 100 100 100 100 100 100 99 100 100 100 100 100 99 100 100 94 89 99 100 100 96 84 93 90 93 100 100
28 52 100 100 100 100 100 100 100 100 100 100 100 100 100 100 100 100 100 100 74 58 100 100 100 94 100 100 97 60 66 99
30 47 100 100 100 100 100 100 100 100 100 100 100 100 100 100 100 100 100 100 100 100 100 100 99 44 83 85 64 19 79 100
32 39 100 100 100 100 100 100 100 100 100 100 100 100 100 100 100 100 100 89 100 100 100 100 91 73 85 93 39 70 74 93
18 24 68 100 100 100 100 100 100 100 100 100 100 100 100 100 100 100 100 100 100 100 100 100 100 100 75 55 81 87 100 100
100 52 45 100 100 100 100 100 100 100 100 100 100 100 100 100 100 100 100 100 100 100 100 100 100 79 38 38 99 54 48 93
100 98 25 56 61 56 100 100 100 100 100 100 100 100 100 100 100 100 100 100 100 100 100 86 68 96 71 51 53 22 100 100
100 92 80 100 100 94 100 100 100 100 100 100 100 100 100 100 100 100 100 100 100 100 100 100 100 100 100 71 97 100 100 100
100 100 100 100 100 100 100 100 100 100 100 100 100 100 100 100 100 100 100 100 100 100 100 100 100 100 100 100 100 100 100 100
100 100 62 71 99 78 99 100 100 94 100 100 100 100 100 100 100 100 100 100 100 100 100 100 100 100 100 100 100 100 100 100
100 100 81 100 100 100 100 100 100 100 100 100 100 100 100 100 100 100 100 100 100 100 100 100 100 100 100 100 100 100 100 100
100 100 100 100 100 100 100 100 100 100 100 100 100 100 100 100 100 100 100 100 100 100 100 100 100 100 100 100 100 100 100 100
100 100 100 100 100 100 100 100 100 100 100 100 100 100 100 100 100 100 100 100 100 100 100 100 100 100 100 100 100 100 100 100